sat.trackr.live / text

‹ back to catalog

TIANQI-36

NORAD 62368 · 2024-245D

PAYLOAD ACTIVE UNKNOWN

§ Identity

Operator
Country
PRC
Launch date
2024-12-19
Launch site
YSLA
Launch vehicle
Mass (kg)
RCS (m²)

External: N2YO · Heavens-Above · Gunter

§ Orbital elements

Epoch: 2026-05-25T04:34:44.567040Z

Period
102.92 min
Inclination
44.9852°
Eccentricity
0.0008970
Mean motion
13.99209869 rev/d
Perigee alt
890.0 km
Apogee alt
903.1 km
Semi-major
7,274.7 km
B*
1.2219e-4
RAAN
63.8298°
Arg perigee
271.9106°
Mean anomaly
88.0699°
Rev number
7,312

§ Raw data

TIANQI-361 62368U 24245D   26145.19079360  .00000050  00000+0  12219-3 0  99972 62368  44.9852  63.8298 0008970 271.9106  88.0699 13.99209869 73124

JSON: /api/v1/satellites/62368 · /tle

For live sub-satellite position, see the globe view (requires WebGL).

§ Visibility from observer

Set your observer location to see the next 7 days of passes ≥ 10°. The values pass through the URL so the page stays shareable.

No JS? Fill the form by hand. The geolocation button needs JavaScript.